Tracking 35237 objects as of 5-Sep-2026
HD Live streaming from Space Station
objects crossing your sky now

THORAD AGENA D DEB

Track THORAD AGENA D DEB now!
10-day predictions


NORAD ID: 14467
Int'l Code: 1970-025NT
Launch date: April 8, 1970
Source: United States (US)
Launch site: AIR FORCE WESTERN TEST RANGE (AFWTR)

Note: This is SATELLITE DEBRIS
Your satellite tracking list
Your tracking list is empty




NASA's NSSDC Master Catalog

Two Line Element Set (TLE):
1 14467U 70025NT  26244.50355417  .00000176  00000-0  27883-3 0  9999
2 14467 100.0296 128.2277 0001476 129.7530 353.6207 13.64616498172202
Source of the keplerian elements: AFSPC